TimeEDT,TemperatureF,Dew PointF,Humidity,Sea Level PressureIn,VisibilityMPH,Wind Direction,Wind SpeedMPH,Gust SpeedMPH,PrecipitationIn,Events,Conditions,WindDirDegrees,DateUTC
12:53 AM,45.0,39.0,80,29.80,10.0,Calm,Calm,-,N/A,,Clear,0,2013-10-23 04:53:00
1:53 AM,46.0,37.0,71,29.80,10.0,NNW,3.5,-,N/A,,Scattered Clouds,340,2013-10-23 05:53:00
2:53 AM,45.0,35.1,68,29.80,10.0,Calm,Calm,-,N/A,,Clear,0,2013-10-23 06:53:00
3:53 AM,44.1,35.1,71,29.78,10.0,Calm,Calm,-,N/A,,Mostly Cloudy,0,2013-10-23 07:53:00
4:53 AM,41.0,36.0,82,29.78,10.0,Calm,Calm,-,N/A,,Mostly Cloudy,0,2013-10-23 08:53:00
5:53 AM,39.9,35.1,83,29.78,10.0,Calm,Calm,-,N/A,,Mostly Cloudy,0,2013-10-23 09:53:00
6:53 AM,36.0,35.1,97,29.75,10.0,Calm,Calm,-,N/A,,Partly Cloudy,0,2013-10-23 10:53:00
7:53 AM,35.1,34.0,96,29.76,10.0,Calm,Calm,-,N/A,,Clear,0,2013-10-23 11:53:00
8:53 AM,43.0,39.0,86,29.76,10.0,Calm,Calm,-,N/A,,Clear,0,2013-10-23 12:53:00
9:53 AM,51.1,36.0,56,29.74,10.0,Calm,Calm,-,N/A,,Scattered Clouds,0,2013-10-23 13:53:00
10:53 AM,52.0,34.0,50,29.73,10.0,Calm,Calm,-,N/A,,Mostly Cloudy,0,2013-10-23 14:53:00
11:53 AM,52.0,35.1,53,29.70,10.0,Calm,Calm,-,N/A,,Mostly Cloudy,0,2013-10-23 15:53:00
12:53 PM,51.1,34.0,52,29.67,10.0,NW,3.5,-,N/A,,Overcast,320,2013-10-23 16:53:00
1:53 PM,51.1,35.1,54,29.63,10.0,Calm,Calm,-,N/A,,Overcast,0,2013-10-23 17:53:00
2:53 PM,50.0,37.0,61,29.60,10.0,Calm,Calm,-,0.00,Rain,Light Rain,0,2013-10-23 18:53:00
3:53 PM,48.0,39.9,74,29.60,10.0,Calm,Calm,-,0.00,Rain,Light Rain,0,2013-10-23 19:53:00
4:53 PM,46.0,41.0,83,29.61,10.0,WNW,3.5,-,0.03,Rain,Light Rain,290,2013-10-23 20:53:00
5:53 PM,44.1,42.1,93,29.61,10.0,Calm,Calm,-,0.03,Rain,Light Rain,0,2013-10-23 21:53:00
6:53 PM,46.0,37.9,73,29.63,10.0,Calm,Calm,-,0.01,Rain,Light Rain,0,2013-10-23 22:53:00
7:53 PM,44.1,39.0,82,29.62,10.0,Calm,Calm,-,0.00,,Overcast,0,2013-10-23 23:53:00
8:53 PM,42.1,41.0,96,29.62,10.0,Calm,Calm,-,N/A,,Partly Cloudy,0,2013-10-24 00:53:00
9:53 PM,42.1,41.0,96,29.63,9.0,Calm,Calm,-,N/A,,Mostly Cloudy,0,2013-10-24 01:53:00
10:53 PM,41.0,39.9,96,29.63,6.0,Calm,Calm,-,N/A,,Overcast,0,2013-10-24 02:53:00
11:53 PM,43.0,39.9,89,29.64,10.0,West,4.6,-,N/A,,Overcast,270,2013-10-24 03:53:00